   Briukhovetskyi. 0.35-m f/2.0 reflector + CCD.
(M45) Starhopper Observatory, Sfantu Gheorghe  (N45.865582 E25.768900)
   Romania.  Observer F. Ursache. 0.41-m f/7.5 reflector + CMO.
(Y05) SONEAR Wykrota-CEAMIG, Serra da Piedade  (S19.824251 W43.690000)
   Brazil.  Observer C. Jacques. 0.45-m f/2.9 reflector + CMO.

Orbital elements:  C3URFE1
   Perihelion 2023 Nov 11.33444 +/- 0.00234 TT =  8:01:35 (JD 2460259.83444)
Epoch 2023 Oct  4.0 TT = JDT 2460221.5   Earth MOID: 0.0056      AutoNEOCP
M 330.67867051 +/- 0.0032           (J2000 ecliptic)
n   0.76488214 +/- 4.43e-5          Peri.   41.94336 +/- 0.0023
a   1.18414904 +/- 4.57e-5          Node    10.23132 +/- 0.000010
e   0.1837202 +/- 3.48e-5           Incl.   12.17801 +/- 0.0015
P   1.29/470.65d           H 26.51  G  0.15   U  6.0
q 0.96659686 +/- 6.04e-6    Q 1.40170121 +/- 9.52e-5
84 of 85 observations 2023 Oct. 3-4 (18.1 hr); mean residual 0".48
Residuals in arcseconds: 
231003 703( 2.0-  .23-)   231003 L47  .87-  .78+    231003 I93  .09+  .18+    
231003 703  .47+  .01-    231003 L47  .56+  1.1+    231003 J69  .58-  .76+    
231003 703  .70-  1.3-    231003 L47  .04-  1.0+    231003 I93  .02+  .18+    
231003 I52  .13+  .19+    231003 595  .03-  .30-    231003 J69  .18+  .15-    
231003 I52  .04+  .37+    231003 L47  .00   .86+    231003 J69  .09+  .08-    
231003 I52  .10-  .50+    231003 595  .08-  .36-    231003 I93  .11-  .34+    
231003 I52  .04+  .16+    231003 203  .11+  .18+    231003 J69  1.2-  .20-    
231003 I52  .00   .17+    231003 L47  .68+  .76-    231003 M45  .58-  .15+    
231003 I52  .11+  .16+    231003 595  .75+  .08-    231003 M45  .30-  .79+    
231003 I52  .05+  .20+    231003 595  .34+  .21+    231003 M45  .22-  .79+    
231003 I52  .05+  .02+    231003 203  .04-  .35+    231003 M45  .30-  .87+    
231003 H01  .31-  .16+    231003 L34  .21-  .51-    231003 L34  .42+  .19-    
231003 H01  .09+  .10+    231003 203  .04+  .10-    231003 958  .50-  .61+    
231003 H01  .26+  .13-    231003 L47  .27+  .57-    231003 958  .43-  .20-    
231003 H01  .07-  .33+    231003 L47  .66+  .85-    231003 J95  .00   .36-    
231003 G02  .21-  .21-    231003 L47  .96+  .14+    231003 J95  .28+  .20+    
231003 G02  1.1-  .58+    231003 L01  .43-  .33-    231003 958  .43-  .42-    
231003 G02  .58-  .87+    231003 L01  .26-  .32-    231003 J95  .34+  .19-    
231003 M32  .09-  .79+    231003 K63  .11-  .27-    231003 J95  .01+  .08-    
231003 M32  .33-  .62+    231003 L01  .16-  .31-    231003 L34  .09-  .02+    
231003 M32  .12-  .39+    231003 K63  .30-  .14+    231003 Y05  .02-  .21-    
231003 M32  .08+  .09+    231003 K63  .20+  .06+    231003 Y05  .23+  .14-    
231003 M32  .72+  1.4-    231003 L01  .24-  .46-    231004 H21  .60-  1.3+    
231003 A17  .13+  .55+    231003 L01  .24-  .17-    231004 H21  .52-  .91+    
231003 A17  .48+  .11-    231003 L01  .40-  .20-    231004 H21  .61-  1.0+    
231003 A17  .62+  .16-    231003 K63  .18+  .05+    231004 H21  .61-  1.1+    
231003 104  .12-  .34+    231003 L01  .68-  .38-    231004 H21  .36-  1.0+    
231003 104  .33+  .44+    231003 L01  .69-  .21-    
231003 104  .21-  .09-    231003 I93  .08-  .44+    

Ephemerides (geocentric):
Date (UTC) HH   RA             Dec           delta  r     elong  mag " sig PA
---- --------  ------------   ------------  ------ ------ -----  --- --------
2023 10 04 11  23 34 30.121   +11 30 54.76  869635 1.0060 162.4 16.3 .357 171
2023 10 04 12  23 32 09.614   +13 08 29.84  864649 1.0059 161.2 16.3 .427 170
2023 10 04 13  23 29 45.700   +14 47 02.44  860447 1.0058 159.9 16.3 .502 169
2023 10 04 14  23 27 18.284   +16 26 21.70  857043 1.0057 158.5 16.4 .580 169
2023 10 04 15  23 24 47.271   +18 06 16.11  854445 1.0056 157.0 16.4 .661 168
2023 10 04 16  23 22 12.561   +19 46 33.68  852660 1.0055 155.6 16.4 .745 168
2023 10 04 17  23 19 34.056   +21 27 02.03  851694 1.0055 154.0 16.5 .832 167
2023 10 04 18  23 16 51.657   +23 07 28.56  851549 1.0054 152.5 16.5 .920 167
2023 10 04 19  23 14 05.262   +24 47 40.54  852226 1.0053 150.9 16.6 1.01 166
2023 10 04 20  23 11 14.770   +26 27 25.31  853723 1.0052 149.3 16.6 1.10 165
2023 10 04 21  23 08 20.080   +28 06 30.36  856035 1.0051 147.7 16.7 1.19 165
2023 10 04 22  23 05 21.091   +29 44 43.52  859156 1.0051 146.1 16.7 1.28 164
2023 10 04 23  23 02 17.702   +31 21 53.08  863076 1.0050 144.5 16.8 1.37 164
2023 10 05 00  22 59 09.815   +32 57 47.87  867786 1.0049 142.9 16.8 1.45 163
2023 10 05 01  22 55 57.332   +34 32 17.40  873271 1.0048 141.3 16.9 1.54 163
2023 10 05 02  22 52 40.158   +36 05 11.90  879518 1.0047 139.7 16.9 1.62 162
2023 10 05 03  22 49 18.200   +37 36 22.45  886510 1.0046 138.1 17.0 1.70 162
2023 10 05 04  22 45 51.371   +39 05 40.97  894230 1.0046 136.6 17.1 1.78 161
2023 10 05 05  22 42 19.586   +40 33 00.26  902658 1.0045 135.1 17.1 1.85 160
2023 10 05 06  22 38 42.766   +41 58 14.03  911775 1.0044 133.6 17.2 1.92 160
2023 10 05 07  22 35 00.838   +43 21 16.89  921561 1.0043 132.1 17.3 1.98 159
2023 10 05 08  22 31 13.738   +44 42 04.32  931994 1.0042 130.7 17.3 2.04 158
2023 10 05 09  22 27 21.408   +46 00 32.64  943053 1.0042 129.3 17.4 2.10 158
2023 10 05 10  22 23 23.800   +47 16 38.99  954715 1.0041 127.9 17.5 2.15 157
2023 10 05 11  22 19 20.877   +48 30 21.27  966960 1.0040 126.5 17.5 2.20 156
2023 10 05 12  22 15 12.611   +49 41 38.08  979764 1.0039 125.2 17.6 2.25 155
2023 10 05 13  22 10 58.991   +50 50 28.68  993106 1.0038 123.9 17.7 2.29 154
2023 10 05 14  22 06 40.016   +51 56 52.92  .00673 1.0038 122.7 17.7 2.33 154
2023 10 05 15  22 02 15.703   +53 00 51.19  .00683 1.0037 121.5 17.8 2.37 153
2023 10 05 16  21 57 46.083   +54 02 24.37  .00693 1.0036 120.3 17.8 2.40 152
2023 10 05 17  21 53 11.208   +55 01 33.74  .00703 1.0035 119.2 17.9 2.42 151
2023 10 05 18  21 48 31.145   +55 58 20.97  .00713 1.0034 118.1 18.0 2.45 150
2023 10 05 19  21 43 45.984   +56 52 48.06  .00724 1.0033 117.0 18.0 2.47 149
2023 10 05 20  21 38 55.834   +57 44 57.29  .00735 1.0033 115.9 18.1 2.49 148
2023 10 05 21  21 34 00.825   +58 34 51.15  .00746 1.0032 114.9 18.2 2.51 147
2023 10 05 22  21 29 01.112   +59 22 32.37  .00758 1.0031 113.9 18.2 2.52 146
2023 10 05 23  21 23 56.870   +60 08 03.82  .00770 1.0030 113.0 18.3 2.53 145
2023 10 06 00  21 18 48.299   +60 51 28.52  .00782 1.0029 112.0 18.4 2.54 144
2023 10 06 01  21 13 35.622   +61 32 49.61  .00794 1.0029 111.1 18.4 2.55 142
2023 10 06 02  21 08 19.083   +62 12 10.29  .00806 1.0028 110.3 18.5 2.55 141
2023 10 06 03  21 02 58.951   +62 49 33.86  .00819 1.0027 109.4 18.5 2.56 140
2023 10 06 04  20 57 35.516   +63 25 03.65  .00832 1.0026 108.6 18.6 2.56 139
2023 10 06 05  20 52 09.087   +63 58 43.04  .00845 1.0025 107.8 18.7 2.56 138
2023 10 06 06  20 46 39.995   +64 30 35.42  .00858 1.0025 107.0 18.7 2.56 137
2023 10 06 07  20 41 08.586   +65 00 44.20  .00871 1.0024 106.3 18.8 2.56 135
2023 10 06 08  20 35 35.223   +65 29 12.80  .00885 1.0023 105.6 18.8 2.56 134
2023 10 06 09  20 30 00.284   +65 56 04.62  .00898 1.0022 104.9 18.9 2.55 133
2023 10 06 10  20 24 24.154   +66 21 23.04  .00912 1.0021 104.2 18.9 2.55 132